COSMOS 1275 DEB, 42145

Orbit data source: Space-Track

COSMOS 1275 DEB, 42145 is space debris in LEO originally from a launch on Thu, 04 Jun 1981 UTC launched from the Plesetsk Missile And Space Complex (PKMTR). Debris objects in space refer to the collection of defunct objects orbiting the Earth. Examples of debris include non-operational satellites, rocket bodies, and fragments generated from explosions, collisions, or faulty payload assembly.

Loading next visibility...
Identifier
42145, 1981-053RH
Orbit
LEO
Country
Flag of CISCIS
Related business
Manufacturer
Unknown
Mission
Spacecraft
Bus & Motor
Unknown
Mass
Unknown
Launch date (UTC)
1981-06-04 (45 years ago)
Launch vehicle
Unknown
Launch site
Plesetsk Missile And Space Complex (PKMTR)
Object type
Payload
Rocket body
Debris
Shape & HBR
Unknown shape, 0.1 m
Radar Cross Section
Small (<0.1 m²)

Expand to show TLE details & history
Last TLE update: 2 days ago

TLE from 2 days ago
0 COSMOS 1275 DEB
1 42145U 81053RH  25351.51387560  .00026313  00000-0  22557-2 0  9992
2 42145  83.3399 266.4605 0001782 281.2521  78.8504 14.97401123636695
Epoch: 2025-12-17T12:19Z
TLE epoch observation values (Epoch: 2025-12-17T12:19:58.851Z)
Latitude
0.00001°
Longitude
-4.91736°
Altitude
577.77 km
Speed
7.572 km/s
True Right ascension
17h 45m 50s
True Declination
0° 00' 00"
Sunlit
Object was in daylight at epoch
Visualization orbit readout
Latitude
Unknown
Longitude
Unknown
Altitude
Unknown
Speed
Unknown
Apparent Right ascension
Unknown
Apparent Declination
Unknown
Sunlit
N/A
Visualization observer readout
Local Sidereal Time
10:51:10
Azimuth
Unknown
Elevation
Unknown
Doppler factor
Unknown
Orbital elements
Apogee altitude
573.134 km
Perigee altitude
570.657 km
Semi-major axis
6,950.033 km
Eccentricity
0.00018
Inclination
83.3399°
RAAN
266.4605°
Arg. of periapsis
281.2521°
True anomaly
78.87044°
Mean anomaly
78.8504°
Eccentric anomaly
78.86042°
Mean motion
3.74596 °/min
Orbital period
96.1 mins
BSTAR
0.0022557
Loading maneuver chart data...
Computing Atmospheric mass density...
Loading historical data...
Loading historical data...
Loading historical data...
Loading historical data...
Loading historical data...
Loading historical data...
Loading historical data...

Documentation

Showing up to 5 results
|